Tracking 33744 objects as of 14-Apr-2026
HD Live streaming from Space Station
objects crossing your sky now

STARLINK-37062

Track STARLINK-37062 now!
10-day predictions
STARLINK-37062 is classified as:


NORAD ID: 68087
Int'l Code: 2026-042U
Perigee: 350.5 km
Apogee: 351.5 km
Inclination: 53.2 °
Period: 91.4 minutes
Semi major axis: 6721 km
RCS: Unknown
Launch date: March 4, 2026
Source: United States (US)
Launch site: AIR FORCE EASTERN TEST RANGE (AFETR)
Your satellite tracking list
Your tracking list is empty




NASA's NSSDC Master Catalog

Two Line Element Set (TLE):
1 68087U 26042U   26103.24798032  .00220424  00000-0  14021-2 0  9994
2 68087  53.1588  21.9740 0000756  98.5943 261.5163 15.75285058  7546
Source of the keplerian elements: AFSPC